| time (UTC) | temp F | wind direction | speed MPH | gust MPH | rain 1hr in | rain 24hr in | rain mn in | humidity % | barometer mb |
| 20260507112409 | 49 | 309 | 3.0 | 6.0 | 0.00 | 0.01 | 0.01 | 93 | 1018.4 |
| 20260507110807 | 49 | 284 | 0.0 | 6.0 | 0.00 | 0.01 | 0.01 | 94 | 1018.3 |
| 20260507105207 | 48 | 280 | 3.0 | 6.0 | 0.00 | 0.01 | 0.01 | 98 | 1018.4 |
| 20260507103608 | 48 | 264 | 0.0 | 3.0 | 0.00 | 0.01 | 0.01 | 99 | 1018.2 |
| 20260507102009 | 47 | 297 | 3.0 | 6.0 | 0.00 | 0.01 | 0.01 | 99 | 1018.1 |
| 20260507100408 | 48 | 276 | 0.0 | 3.0 | 0.00 | 0.01 | 0.01 | 99 | 1017.8 |
| 20260507094808 | 48 | 285 | 0.0 | 4.0 | 0.00 | 0.01 | 0.01 | 99 | 1017.6 |
| 20260507093207 | 47 | 277 | 0.0 | 4.0 | 0.00 | 0.01 | 0.01 | 99 | 1017.5 |
| 20260507091609 | 47 | 300 | 1.0 | 4.0 | 0.01 | 0.01 | 0.01 | 99 | 1017.3 |
| 20260507090009 | 47 | 286 | 2.0 | 4.0 | 0.01 | 0.01 | 0.01 | 99 | 1017.3 |
| 20260507084444 | 47 | 263 | 0.0 | 4.0 | 0.01 | 0.01 | 0.01 | 99 | 1017.1 |
| 20260507084407 | 47 | 263 | 0.0 | 4.0 | 0.01 | 0.01 | 0.01 | 99 | 1017.1 |
| 20260507082809 | 47 | 283 | 0.0 | 3.0 | 0.01 | 0.01 | 0.01 | 99 | 1017.1 |
| 20260507081208 | 46 | 296 | 3.0 | 4.0 | 0.00 | 0.00 | 0.00 | 99 | 1016.9 |
| 20260507075609 | 47 | 280 | 1.0 | 4.0 | 0.00 | 0.00 | 0.00 | 99 | 1016.9 |
| 20260507074007 | 46 | 251 | 0.0 | 3.0 | 0.00 | 0.00 | 0.00 | 99 | 1016.5 |
| 20260507072412 | 46 | 261 | 1.0 | 3.0 | 0.00 | 0.00 | 0.00 | 99 | 1016.4 |
| 20260507070807 | 46 | 264 | 1.0 | 6.0 | 0.00 | 0.00 | 0.00 | 99 | 1016.2 |
| 20260507065207 | 46 | 290 | 3.0 | 6.0 | 0.00 | 0.00 | 0.00 | 99 | 1016.1 |
| 20260507063606 | 46 | 286 | 1.0 | 6.0 | 0.00 | 0.00 | 0.00 | 99 | 1015.9 |
| 20260507062010 | 47 | 266 | 0.0 | 2.0 | 0.00 | 0.00 | 0.00 | 97 | 1015.8 |
| 20260507060407 | 46 | 299 | 3.0 | 4.0 | 0.00 | 0.00 | 0.00 | 97 | 1015.8 |
| 20260507054809 | 46 | 298 | 3.0 | 6.0 | 0.00 | 0.00 | 0.00 | 97 | 1015.5 |
| 20260507053208 | 46 | 303 | 0.0 | 4.0 | 0.00 | 0.00 | 0.00 | 97 | 1015.4 |
| 20260507051609 | 46 | 293 | 3.0 | 6.0 | 0.00 | 0.00 | 0.00 | 97 | 1015.4 |
| 20260507050007 | 46 | 284 | 2.0 | 3.0 | 0.00 | 0.00 | 0.00 | 96 | 1014.9 |
| 20260507044408 | 46 | 300 | 1.0 | 3.0 | 0.00 | 0.00 | 0.00 | 96 | 1014.8 |
| 20260507042808 | 46 | 282 | 1.0 | 6.0 | 0.00 | 0.00 | 0.00 | 97 | 1014.6 |
| 20260507041208 | 46 | 285 | 0.0 | 6.0 | 0.00 | 0.00 | 0.00 | 97 | 1014.4 |
| 20260507035608 | 46 | 305 | 1.0 | 6.0 | 0.00 | 0.00 | 0.00 | 98 | 1014.2 |
| 20260507034007 | 46 | 291 | 0.0 | 4.0 | 0.00 | 0.00 | 0.00 | 98 | 1014.3 |
| 20260507032409 | 46 | 289 | 3.0 | 6.0 | 0.00 | 0.00 | 0.00 | 98 | 1014.2 |
| 20260507030811 | 46 | 292 | 1.0 | 6.0 | 0.00 | 0.00 | 0.00 | 98 | 1014.2 |
| 20260507025209 | 47 | 301 | 2.0 | 6.0 | 0.00 | 0.00 | 0.00 | 97 | 1014.0 |
| 20260507023607 | 47 | 298 | 1.0 | 4.0 | 0.00 | 0.00 | 0.00 | 97 | 1013.8 |
| 20260507022010 | 47 | 298 | 3.0 | 6.0 | 0.00 | 0.01 | 0.00 | 96 | 1014.0 |
| 20260507020408 | 47 | 299 | 2.0 | 6.0 | 0.00 | 0.03 | 0.00 | 97 | 1014.0 |
| 20260507014809 | 47 | 302 | 0.0 | 4.0 | 0.00 | 0.05 | 0.00 | 98 | 1013.8 |
| 20260507013207 | 47 | 296 | 3.0 | 6.0 | 0.00 | 0.08 | 0.00 | 98 | 1013.9 |
| 20260507011608 | 47 | 301 | 0.0 | 6.0 | 0.00 | 0.09 | 0.00 | 98 | 1013.7 |
| 20260507010008 | 47 | 293 | 0.0 | 4.0 | 0.00 | 0.11 | 0.00 | 97 | 1013.6 |
| 20260507004407 | 47 | 289 | 2.0 | 8.0 | 0.00 | 0.11 | 0.00 | 96 | 1013.6 |
| 20260507002808 | 48 | 291 | 2.0 | 6.0 | 0.00 | 0.11 | 0.00 | 96 | 1013.6 |
| 20260507001208 | 48 | 276 | 2.0 | 4.0 | 0.00 | 0.11 | 0.00 | 96 | 1013.5 |
| 20260506235609 | 48 | 293 | 3.0 | 6.0 | 0.00 | 0.11 | 0.00 | 97 | 1013.4 |
| 20260506234007 | 49 | 307 | 1.0 | 4.0 | 0.00 | 0.11 | 0.00 | 97 | 1013.5 |
| 20260506232408 | 48 | 301 | 1.0 | 4.0 | 0.00 | 0.11 | 0.00 | 98 | 1013.2 |
| 20260506230811 | 49 | 293 | 2.0 | 4.0 | 0.00 | 0.11 | 0.00 | 98 | 1013.2 |
| 20260506225207 | 49 | 291 | 1.0 | 4.0 | 0.00 | 0.11 | 0.00 | 97 | 1013.1 |
| 20260506223608 | 49 | 287 | 2.0 | 4.0 | 0.00 | 0.11 | 0.00 | 97 | 1013.1 |
| 20260506222011 | 49 | 295 | 2.0 | 4.0 | 0.00 | 0.11 | 0.00 | 98 | 1012.9 |
| 20260506220407 | 50 | 301 | 0.0 | 3.0 | 0.00 | 0.11 | 0.00 | 97 | 1012.9 |
| 20260506214808 | 50 | 337 | 0.0 | 2.0 | 0.00 | 0.11 | 0.11 | 97 | 1012.9 |
| 20260506213208 | 50 | 352 | 1.0 | 6.0 | 0.00 | 0.11 | 0.11 | 97 | 1012.7 |
| 20260506211609 | 50 | 37 | 1.0 | 6.0 | 0.00 | 0.12 | 0.11 | 96 | 1012.8 |
| 20260506210007 | 51 | 352 | 2.0 | 6.0 | 0.00 | 0.12 | 0.11 | 95 | 1012.5 |
| 20260506204408 | 51 | 343 | 1.0 | 6.0 | 0.00 | 0.12 | 0.11 | 94 | 1012.3 |
| 20260506202808 | 52 | 303 | 0.0 | 6.0 | 0.00 | 0.14 | 0.11 | 93 | 1012.3 |
| 20260506201207 | 52 | 338 | 0.0 | 6.0 | 0.00 | 0.16 | 0.11 | 93 | 1012.4 |
| 20260506195609 | 53 | 305 | 3.0 | 6.0 | 0.00 | 0.18 | 0.11 | 93 | 1012.0 |
| 20260506194007 | 54 | 314 | 2.0 | 6.0 | 0.00 | 0.22 | 0.11 | 92 | 1011.8 |
| 20260506192407 | 55 | 323 | 2.0 | 3.0 | 0.00 | 0.25 | 0.11 | 89 | 1011.4 |
| 20260506190810 | 55 | 297 | 2.0 | 4.0 | 0.00 | 0.30 | 0.11 | 86 | 1011.2 |
| 20260506185207 | 56 | 274 | 1.0 | 6.0 | 0.00 | 0.36 | 0.11 | 85 | 1011.1 |
| 20260506183607 | 56 | 238 | 3.0 | 6.0 | 0.00 | 0.41 | 0.11 | 84 | 1010.8 |
| 20260506182012 | 56 | 274 | 2.0 | 4.0 | 0.00 | 0.42 | 0.11 | 84 | 1010.8 |
| 20260506180409 | 57 | 268 | 0.0 | 6.0 | 0.00 | 0.47 | 0.11 | 82 | 1010.9 |
| 20260506174810 | 57 | 274 | 1.0 | 6.0 | 0.00 | 0.51 | 0.11 | 82 | 1010.6 |
| 20260506173210 | 58 | 284 | 2.0 | 9.0 | 0.00 | 0.54 | 0.11 | 80 | 1010.3 |
| 20260506171610 | 58 | 272 | 5.0 | 8.0 | 0.00 | 0.73 | 0.11 | 78 | 1010.4 |
| 20260506170007 | 61 | 265 | 2.0 | 8.0 | 0.00 | 0.81 | 0.11 | 70 | 1010.2 |
| 20260506164406 | 62 | 257 | 6.0 | 11.0 | 0.00 | 0.81 | 0.11 | 65 | 1010.2 |
| 20260506162810 | 63 | 252 | 3.0 | 8.0 | 0.00 | 0.81 | 0.11 | 65 | 1009.9 |
| 20260506161210 | 63 | 230 | 4.0 | 8.0 | 0.00 | 0.81 | 0.11 | 62 | 1009.7 |
| 20260506155606 | 64 | 223 | 3.0 | 10.0 | 0.00 | 0.81 | 0.11 | 60 | 1010.0 |
| 20260506154008 | 64 | 251 | 2.0 | 8.0 | 0.00 | 0.81 | 0.11 | 60 | 1010.0 |
| 20260506152408 | 67 | 233 | 3.0 | 9.0 | 0.00 | 0.81 | 0.11 | 55 | 1009.8 |
| 20260506150811 | 64 | 234 | 4.0 | 12.0 | 0.00 | 0.81 | 0.11 | 58 | 1010.0 |
| 20260506145208 | 65 | 204 | 2.0 | 17.0 | 0.00 | 0.81 | 0.11 | 56 | 1009.9 |
| 20260506143607 | 64 | 244 | 3.0 | 10.0 | 0.00 | 0.81 | 0.11 | 62 | 1010.1 |
| 20260506142008 | 65 | 241 | 4.0 | 11.0 | 0.00 | 0.81 | 0.11 | 60 | 1010.0 |
| 20260506140408 | 65 | 224 | 4.0 | 9.0 | 0.00 | 0.81 | 0.11 | 62 | 1010.1 |
| 20260506134809 | 64 | 236 | 4.0 | 11.0 | 0.00 | 0.81 | 0.11 | 61 | 1009.8 |
| 20260506133206 | 64 | 218 | 4.0 | 9.0 | 0.00 | 0.81 | 0.11 | 62 | 1010.0 |
| 20260506131735 | 63 | 218 | 5.0 | 9.0 | 0.00 | 0.81 | 0.11 | 63 | 1010.0 |
| 20260506131609 | 63 | 218 | 5.0 | 9.0 | 0.00 | 0.81 | 0.11 | 63 | 1010.0 |
| 20260506130007 | 64 | 201 | 3.0 | 9.0 | 0.00 | 0.81 | 0.11 | 62 | 1010.2 |
| 20260506124406 | 63 | 219 | 3.0 | 13.0 | 0.00 | 0.81 | 0.11 | 63 | 1010.2 |
| 20260506122808 | 64 | 224 | 3.0 | 8.0 | 0.00 | 0.81 | 0.11 | 64 | 1010.3 |
| 20260506121208 | 62 | 205 | 3.0 | 10.0 | 0.00 | 0.81 | 0.11 | 66 | 1010.2 |
| 20260506115609 | 62 | 204 | 5.0 | 10.0 | 0.00 | 0.81 | 0.11 | 66 | 1010.4 |
| 20260506114008 | 63 | 212 | 5.0 | 11.0 | 0.00 | 0.81 | 0.11 | 64 | 1010.3 |